Regional Weather Roundup
Issued by NWS State College, PA

Home | Current Version | Previous Version | Text Only | Print | Product List | Glossary On
Versions: 1 2 3 4 5 6 7 8 9 10 11 12 13 14 15 16 17 18 19 20 21 22 23 24 25 26 27 28 29 30 31 32 33 34 35 36 37 38 39 40 41 42 43 44 45 46 47 48 49 50
000
ASUS41 KCTP 311503
RWRCTP

REGIONAL WEATHER ROUNDUP
NATIONAL WEATHER SERVICE STATE COLLEGE PA
1000 AM EST SAT JAN 31 2015

Note: "fair" indicates few or no clouds below 12,000 feet with no
significant weather and/or obstructions to visibility.

* = STATION THAT DOES NOT REPORT PRECIPITATION /E.G. RAIN...SNOW...ETC/
    THUNDER OR FOG.

PAZ002>004-007>009-013>016-020>023-029>032-311600-
WESTERN PENNSYLVANIA

CITY           SKY/WX    TMP DP  RH WIND       PRES   REMARKS
ERIE           CLOUDY    15   5  64 S10       30.32F WCI   2
MEADVILLE      PTSUNNY   10   7  87 S6        30.29R WCI   0
FRANKLIN*      CLOUDY    10   3  72 SW6       30.29S WCI   1
NEW CASTLE     FAIR      12   5  73 S6        30.34F WCI   3
BEAVER COUNTY  SUNNY     16   7  67 SW9       30.32F WCI   4
BUTLER*        MOSUNNY   12   5  73 SW5       30.34R WCI   4
PITTSBURGH INT SUNNY     15   7  70 SW9       30.33F WCI   3
PITTSBURGH     SUNNY     13   4  67 SW9       30.33S WCI   1
INDIANA*       CLOUDY    10   5  79 W5        30.36R WCI   2
LATROBE        CLOUDY    12   7  79 SW9       30.37S WCI   0
WASHINGTON CO* SUNNY     16  10  79 S3        30.36S
$$

PAZ004>006-010>012-017>019-024>028-033>037-041-042-045-046-049>053-311600-
CENTRAL PENNSYLVANIA

CITY           SKY/WX    TMP DP  RH WIND       PRES   REMARKS
BRADFORD       CLOUDY    10   3  73 W10       30.19S WCI  -4
DUBOIS         CLOUDY     9   4  80 W6        30.24S WCI  -1
CLEARFIELD     CLOUDY    12   4  70 W12       30.28R WCI  -2
JOHNSTOWN      CLOUDY     9   3  77 W10       30.21R WCI  -5
ALTOONA        MOSUNNY   28   3  34 NW10      30.27S
STATE COLLEGE  FLURRIES  14   5  67 NW12      30.28S WCI   0
WILLIAMSPORT   CLOUDY    17   3  54 W10       30.30S WCI   5
SELINSGROVE    SUNNY     17   2  51 NW10      30.32F WCI   5
FT INDIANTOWN  SUNNY     16   1  50 W17G28    30.29R WCI   0
CAPITAL CITY   PTSUNNY   18   3  52 NW12G22   30.33R WCI   5
HARRISBURG     MOSUNNY   18   4  54 NW23      30.31R WCI   0
YORK           SUNNY     17   3  54 NW13      30.31R WCI   4
$$

PAZ038>040-043-044-047-048-054-055-060>062-067>071-311600-
EASTERN PENNSYLVANIA

CITY           SKY/WX    TMP DP  RH WIND       PRES   REMARKS
SCRANTON       MOSUNNY   10  -1  61 NW14G26   30.23R WCI  -6
MOUNT POCONO   MOSUNNY    6  -3  66 NW24G36   30.03R WCI -16
ALLENTOWN      SUNNY     14  -2  49 NW13G21   30.23R WCI   0
QUAKERTOWN*    SUNNY     14   0  52 NW10G26   30.21S WCI   1
READING        SUNNY     16   1  51 NW17G26   30.27R WCI   0
LANCASTER      SUNNY     16   1  51 NW18      30.29R WCI   0
COATESVILLE    SUNNY     16   3  57 NW17G26   30.25R WCI   0
POTTSTOWN      SUNNY     15  -1  49 NW15G24   30.25S WCI   0
BLUE BELL      SUNNY     19   1  45 NW7G16    30.23R WCI  10
DOYLESTOWN     SUNNY     14  -1  51 NW18G25   30.21R WCI  -3
WILLOW GROVE   NOT AVBL
NORTH PHILA    SUNNY     19  -2  39 NW13G30   30.26R WCI   6
PHILADELPHIA   SUNNY     19  -3  38 NW18G29   30.28R WCI   4
$$



USA.gov is the U.S. government's official web portal to all federal, state and local government web resources and services.